Starlink 30418

operational
NORAD ID: 57829 Int'l Des: 2023-138 Owner: SPXS Country: US Constellation: starlink
LEOCIRCULAR

关于 Starlink 30418

正在加载描述...

实时位置

正在加载3D地球...

即将过境

高度历史

Altitude vs Time

uPlot chart will show altitude changes over time

两行轨道根数

1 57829U 23138X 25260.93134225 .00000136 00000-0 25140-4 0 9998
2 57829 43.0026 94.3664 0001429 264.7500 95.3179 15.02531304112563
Epoch: Sep 17, 2025 • Age: 31 hours

当前状态

高度 562.7 km
速度 7.59 km/s
星下点 40.82°N, 124.83°E
发射日期 Sep 9, 2023
运行时间 2 years
类型 internet

技术详情

分类 Payload
质量 730.00 kg
干质量 700.00 kg
总质量 730.00 kg
长度 0.30 m
直径 4.10 m
跨度 29.00 m
形状 Box + pan
制造商 SPXS
平台类型 Starlink V2M
阶段状态 In Orbit
所有者/国家 SPXS/US

大型星座

Loading constellations...